Location: Bornum
(51.9769°N, 10.1392°E)
Time: 09:12:26
(UTC+00:00)

Daily predictions for brighter satellites

Satellite Brightness Start Highest point End
(mag) Time Altitude Azimuth Time Altitude Azimuth Time Altitude Azimuth
SL-16 R/B 4.1 15:46:09 10° WNW 15:50:03 18° NNW 15:53:58 10° NNE
Iridium 2 3.6 15:47:50 10° N 15:51:38 83° E 15:55:23 10° S
NOSS 3-1 (A) 4.1 15:45:18 10° NW 15:52:31 81° NE 16:01:06 10° SE
SJ-7 4.5 15:48:38 10° SSE 15:52:49 72° ENE 15:57:04 10° N
Cosmos 1743 Rocket 4.0 15:49:11 10° N 15:53:14 37° ENE 15:57:15 10° SE
NOSS 3-1 (C) 4.4 15:46:00 10° NW 15:53:16 76° SW 16:01:52 10° SSE
Meteor PRIRODA 3.7 15:50:19 10° SSE 15:53:52 57° ENE 15:57:28 10° N
USA 276 3.9 15:51:14 10° W 15:54:05 33° SSW 15:56:56 10° SE
Envisat 4.2 15:49:26 10° S 15:54:20 48° W 15:59:16 10° NNW
ATLAS CENTAUR R/B 2.2 15:50:52 10° WSW 15:55:00 50° NW 15:59:27 10° NE
Okean O Rocket 3.2 15:52:29 10° E 15:55:04 15° NE 15:57:40 10° NNE
USA 234 3.4 15:48:36 10° ESE 15:55:10 85° SSW 16:01:45 10° WNW
NOSS 2-1 (D) 3.1 15:52:47 10° SW 15:55:59 65° NW 15:59:26 10° NE
COSMOS 2455 4.4 15:53:25 10° SE 15:56:52 16° ESE 16:00:20 10° ENE
NOAA 11 4.3 15:51:44 10° SSE 15:57:10 88° WSW 16:02:39 10° NNW
NOAA 12 4.1 15:52:43 10° SSE 15:57:59 66° ENE 16:03:17 10° N
Cosmos-2242 4.3 15:55:12 10° SW 15:59:16 41° WNW 16:03:21 10° N
NOSS 2-2 (D) 4.3 15:54:50 10° NW 15:59:20 48° NE 16:05:29 10° ESE
NOSS 2-2 (E) 4.3 15:55:14 10° NW 15:59:56 56° NE 16:06:28 10° ESE
Meteor 1-31 Rocket 4.0 15:56:35 10° S 16:00:14 46° W 16:03:58 10° NNW
USA 308 2.9 15:58:20 10° WSW 16:02:37 80° NNW 16:06:49 10° ENE
Cosmos 1833 Rocket 3.6 15:58:16 10° SSE 16:03:00 29° ESE 16:07:46 10° NE
ARGOS 4.2 16:00:39 10° ESE 16:04:48 23° NE 16:08:57 10° N
Cosmos 2219 Rocket 4.2 16:05:38 10° N 16:07:28 11° N 16:09:19 10° NNE
SL-16 R/B 4.3 16:02:37 10° N 16:07:38 27° NW 16:12:39 10° WSW
Cosmos 1340 Rocket 2.8 16:05:00 10° N 16:09:03 66° ENE 16:13:07 10° SSE
SJ 16-02 3.2 16:05:29 10° NW 16:09:29 35° WSW 16:13:28 10° S
CZ-4C R/B 3.3 16:05:51 10° NNE 16:09:50 81° WNW 16:13:33 10° SSW
Cosmos 1464 Rocket 4.1 16:04:41 10° S 16:11:03 77° E 16:17:27 10° NNE
ISS -3.6 16:10:11 10° W 16:13:35 78° S 16:16:59 10° ESE
Nadezhda 4 Rocket 4.0 16:10:20 10° N 16:16:42 83° E 16:23:03 10° SSE
Cosmos 1606 2.8 16:13:52 10° SSW 16:17:38 81° W 16:21:28 10° N
Lacrosse 5 rocket 1.7 16:14:06 10° WNW 16:17:44 41° N 16:20:54 14° ENE
CZ-2D R/B 3.9 16:14:38 10° SE 16:18:05 32° ENE 16:21:32 10° N
Cosmos 2360 4.2 16:13:55 10° NNW 16:19:41 70° ENE 16:25:23 10° SE
Meteor 1-20 Rocket 4.3 16:15:11 10° N 16:21:00 68° ENE 16:26:50 10° SSE
CZ-4B R/B 3.7 16:16:21 10° SE 16:21:12 35° ENE 16:25:59 10° N
CZ-2C R/B 3.8 16:18:04 10° NE 16:21:51 20° E 16:25:36 10° SE
Cosmos 1500 Rocket 3.5 16:17:46 10° N 16:22:15 73° ENE 16:26:39 10° SSE
CZ-4 R/B 3.4 16:23:49 11° NE 16:23:49 11° NE 16:24:15 10° NNE
CZ-4C R/B 3.0 16:16:25 10° NW 16:23:00 56° NE 16:30:56 10° ESE
Cosmos 1818 4.3 16:18:44 10° NW 16:23:47 35° NNE 16:28:21 12° E
Cosmos 540 Rocket 4.3 16:20:28 10° SSE 16:24:50 30° ESE 16:28:34 13° NE
GEOS 3 Rocket 4.1 16:21:25 10° E 16:26:14 39° NNE 16:31:01 10° NW
Cosmos 1500 3.8 16:24:22 10° N 16:27:47 33° ENE 16:31:12 10° SE
CZ-4B R/B 3.3 16:24:14 10° S 16:28:15 64° WSW 16:32:06 10° NNW
Cosmos 44 Rocket 4.1 16:25:08 10° NW 16:29:39 33° NNE 16:33:01 15° E
USA 305 2.9 16:25:37 10° W 16:29:50 69° N 16:32:56 18° ENE
SMAP 3.0 16:25:18 10° SSE 16:29:57 80° ENE 16:34:38 10° NNW
Cosmos 1092 Rocket 4.0 16:25:06 10° N 16:31:27 67° ENE 16:37:45 10° SSE
CZ-2C R/B 3.5 16:27:18 10° S 16:32:09 61° WSW 16:36:53 10° NNW
MOS 1-B 4.4 16:27:21 10° SE 16:32:58 55° ENE 16:38:36 10° N
Cosmos 1898 Rocket 3.5 16:28:02 10° NNW 16:33:21 89° WSW 16:38:35 10° SSE
Cosmos 1805 Rocket 3.5 16:29:29 10° N 16:33:48 59° ENE 16:38:05 10° SSE
Cosmos 468 Rocket 4.1 16:29:23 10° S 16:34:25 55° ESE 16:39:17 11° NNE
Sich 1 3.2 16:30:17 10° N 16:34:27 47° ENE 16:38:37 10° SSE
Cosmos 1461 4.5 16:31:46 10° W 16:35:14 25° NNW 16:38:26 11° NNE
Cosmos 1428 Rocket 4.4 16:30:06 10° N 16:36:11 63° ENE 16:42:17 10° SSE
Cosmos 1933 3.6 16:33:48 10° SSE 16:37:42 47° E 16:41:35 10° NNE
Cosmos 2360 Rocket 3.7 16:35:01 10° NNW 16:38:48 18° NNE 16:40:26 16° NE
Cosmos 1842 Rocket 3.9 16:35:57 10° SSW 16:40:25 71° WNW 16:44:55 10° N
Cosmos 2221 3.0 16:36:17 10° SSW 16:40:31 61° WNW 16:44:49 10° N
PSLV R/B 3.6 16:39:35 10° SSE 16:43:15 66° ENE 16:46:58 10° N
SL-08 R/B 3.9 16:39:21 10° N 16:44:01 58° WNW 16:48:35 10° SSW
Cosmos 1627 Rocket 4.4 16:45:58 10° N 16:52:12 79° E 16:58:19 10° SSE
deb Chang Zheng 4 3.7 16:48:52 10° SE 16:53:00 48° ENE 16:57:10 10° N
AQUARIUS 4.4 16:49:06 10° S 16:53:35 74° WSW 16:58:06 10° NNW
Meteor 1-14 Rocket 4.4 16:49:55 10° N 16:55:36 54° ENE 17:01:22 10° SSE
H-2A R/B 1.9 16:50:48 10° SSE 16:55:57 74° ENE 17:01:00 10° NNW
NOSS 2-1 (E) 4.4 16:53:14 10° W 16:56:08 28° NNW 16:58:03 18° NNE
NOSS 2-2 (C) 4.2 16:51:57 10° NW 16:56:50 89° SW 17:03:43 10° SE
Cosmos 2034 Rocket 4.2 16:51:10 10° SSW 16:57:19 74° WNW 17:03:31 10° N
Cosmos 1666 3.0 16:53:59 10° N 16:57:31 38° ENE 17:01:00 10° SE
Cosmos 2322 Rocket 3.2 16:53:46 10° NNW 16:58:36 27° NE 17:00:05 24° ENE
ERBS 2.9 16:55:41 10° W 16:58:46 43° NNW 16:59:46 32° NNE
Cosmos 1697 Rocket 3.3 16:56:21 10° NW 17:01:54 60° WSW 17:07:24 10° SSE
USA 306 3.0 16:57:42 10° W 17:01:57 65° N 17:03:44 33° ENE
USA 267 3.2 16:58:13 21° ENE 17:02:50 85° SSE 17:09:24 10° WSW
Cosmos 2279 Rocket 4.2 16:57:36 10° SSE 17:03:27 45° E 17:09:17 10° NNE
SJ-11-01 4.4 16:59:40 10° SE 17:04:18 54° ENE 17:08:56 10° N
Cosmos 2369 3.8 16:59:33 10° NNW 17:05:19 81° WSW 17:11:03 10° SSE
Cosmos 1980 Rocket 2.1 17:00:08 10° NNW 17:05:52 85° ENE 17:11:31 10° SSE
COSMO-SKYMED 1 3.0 17:05:08 29° NE 17:06:37 39° E 17:10:41 10° SSE
MOS 1-B Rocket 4.1 17:01:04 10° NNE 17:06:47 57° ESE 17:13:10 10° S
Meteor 1-5 Rocket 4.3 17:01:53 10° N 17:07:49 60° ENE 17:13:40 10° SSE
Cosmos 1763 Rocket 3.5 17:04:10 10° SSW 17:09:15 80° WNW 17:13:30 15° NNE
Cosmos 1939 Rocket 4.4 17:05:59 10° SSW 17:09:50 38° W 17:13:41 10° NNW
SL-24 R/B - RUBIN 2 3.7 17:06:23 10° NW 17:11:01 75° SW 17:15:19 10° SE
Meteor 2-21 4.4 17:05:10 10° NNW 17:11:19 87° W 17:17:22 10° S
H-2A R/B 4.3 17:17:11 16° N 17:17:11 16° N 17:18:10 10° N
Cosmos 841 Rocket 3.5 17:09:40 10° S 17:14:43 57° ESE 17:17:15 28° NE
Cosmos 1937 Rocket 4.1 17:09:35 10° NNW 17:14:50 59° WSW 17:20:02 10° S
SL-16 R/B 2.7 17:10:33 10° NNW 17:15:53 39° NE 17:17:26 32° E
Cosmos 1125 Rocket 4.0 17:11:20 10° NNW 17:16:12 37° NE 17:17:07 34° ENE
Cosmos 1812 2.9 17:12:40 10° S 17:16:22 47° E 17:16:31 47° E
Cosmos 1633 Rocket 3.0 17:13:25 10° N 17:17:46 60° ENE 17:22:06 10° SSE
Cosmos 2237 Rocket 4.3 17:16:53 10° N 17:18:42 11° N 17:19:43 11° NNE
Cosmos 1634 Rocket 3.9 17:12:37 10° S 17:18:56 83° E 17:25:20 10° NNE
USA 307 2.9 17:16:00 10° W 17:20:17 66° N 17:21:20 47° ENE
YAOGAN 1 3.3 17:22:20 35° NE 17:22:20 35° NE 17:25:26 10° N
Cosmos 2082 Rocket 2.3 17:16:48 10° S 17:22:17 52° ESE 17:24:27 34° ENE
Cosmos 2026 Rocket 4.3 17:17:00 10° NNW 17:23:08 68° W 17:29:08 10° S
Cosmos 2333 Rocket 3.7 17:20:08 10° NNW 17:24:11 20° NNE 17:24:11 20° NNE
Cosmos 372 Rocket 4.3 17:23:59 10° NNW 17:29:11 68° WSW 17:34:23 10° SSE
Cosmos 2278 3.7 17:24:03 10° NNW 17:29:49 88° SW 17:35:31 10° SSE
ATLAS 2AS CENTAUR R/B 3.9 17:23:23 10° WNW 17:30:14 34° N 17:33:28 24° NE
Okean O Rocket 1.5 17:26:20 10° SSE 17:30:48 89° ENE 17:35:17 10° NNW
SKYMED 3 4.5 17:29:31 42° NE 17:30:49 66° ESE 17:35:07 10° S
ATLAS CENTAUR R/B 3.5 17:31:33 10° WNW 17:34:52 20° NNW 17:36:14 18° N
Cosmos 1655 Rocket 4.0 17:29:20 10° N 17:35:41 58° ENE 17:41:57 10° SSE
SL-16 R/B 4.4 17:35:07 10° NNW 17:36:42 11° N 17:38:14 10° NNE
Cosmos 1151 Rocket 2.9 17:32:58 10° S 17:37:16 73° E 17:38:08 55° NE
Cosmos 1782 3.2 17:33:24 10° SSW 17:37:21 62° WNW 17:39:44 23° N
COSMOS 2406 3.2 17:34:13 10° SSW 17:39:59 81° WNW 17:43:05 29° NNE
COSMOS 2455 2.7 17:35:48 10° SSW 17:41:48 73° ESE 17:43:55 42° NE
Cosmos 1666 Rocket 3.9 17:38:12 10° NNW 17:42:39 67° W 17:47:01 10° S
USA 308 2.8 17:38:29 10° WNW 17:42:44 68° N 17:42:51 68° NNE
Meteor 2-15 4.5 17:37:26 10° SSE 17:43:20 53° E 17:45:42 34° NE
ARGOS 3.3 17:39:09 10° S 17:44:34 75° WSW 17:50:00 10° NNW
Cosmos 1470 Rocket 3.7 17:41:21 10° N 17:45:00 55° NNE 17:45:00 55° NNE
Cosmos 1833 Rocket 3.1 17:41:02 10° SW 17:46:35 60° NW 17:49:48 26° NNE
Cosmos 2180 Rocket 4.4 17:43:28 10° S 17:49:47 72° E 17:56:03 10° NNE
ISS -2.2 17:47:07 10° W 17:50:11 31° SSW 17:50:11 31° SSW
Meteor 2-6 Rocket 4.1 17:45:48 10° S 17:51:31 69° E 17:53:25 42° NNE
Cosmos 1328 Rocket 3.7 17:47:12 10° S 17:50:52 58° SSE 17:50:52 58° SSE
Cosmos 2219 Rocket 3.8 17:49:20 10° NNW 17:52:22 21° NNE 17:52:22 21° NNE
SKYMED 2 3.6 17:53:44 50° N 17:54:48 75° WNW 17:59:08 10° SSW
CZ-4 R/B 3.4 17:59:49 19° N 17:59:49 19° N 18:00:59 10° NNW
Lacrosse 5 rocket 1.6 17:53:10 10° WNW 17:56:30 63° WNW 17:56:30 63° WNW
Landsat 5 4.2 18:00:26 44° SSW 18:00:26 44° SSW 18:03:14 10° SSW
Cosmos 2298 Rocket 3.9 17:54:18 10° NNW 17:59:40 81° ENE 18:00:27 65° SE
NOAA 15 4.5 17:55:53 10° SSE 18:01:11 89° ENE 18:06:30 10° NNW
CZ-4B R/B 4.2 17:56:28 10° S 18:01:40 46° W 18:06:48 10° NNW
Cosmos 1570 Rocket 3.8 17:56:54 10° SSW 18:02:05 75° ESE 18:02:05 75° ESE
CZ-2C R/B 2.7 17:59:22 22° N 18:02:44 72° WNW 18:07:52 10° SSW
Meteor 2-8 Rocket 4.3 17:56:46 10° S 18:02:56 84° E 18:08:05 16° NNE
ATLAS CENTAUR R/B 2.2 17:55:53 10° WSW 18:03:22 80° NNW 18:03:22 80° NNW
GEOS 3 Rocket 3.8 18:02:08 39° SSE 18:04:06 69° SW 18:09:18 10° NW
SL-08 RB Rocket 4.0 17:59:47 10° S 18:04:24 66° WSW 18:09:01 10° NNW
Cosmos 540 Rocket 4.2 18:01:17 10° SW 18:06:13 49° WNW 18:08:24 30° N
Meteor 1-11 Rocket 3.5 18:01:31 10° N 18:07:08 78° ENE 18:07:51 67° SE
Cosmos 1818 3.7 18:02:19 10° NW 18:07:49 74° SW 18:09:03 53° SSE
Meteor 1-10 Rocket 4.2 18:03:50 10° S 18:09:03 66° SE 18:09:03 66° SE
Cosmos 1814 Rocket 3.9 18:04:38 10° SSW 18:09:52 86° WNW 18:10:09 80° N
USA 305 3.6 18:05:41 10° WNW 18:08:56 51° WNW 18:08:56 51° WNW
Cosmos 44 Rocket 3.4 18:06:39 10° NW 18:11:36 69° SW 18:11:46 68° SW
CZ-4C R/B 3.4 18:04:54 10° NW 18:11:53 59° SW 18:20:03 10° SSE
IRS-1C Rocket 4.4 18:20:34 56° N 18:20:34 56° N 18:24:42 10° NNW
Cosmos 2360 Rocket 3.1 18:18:34 10° NNW 18:22:13 37° N 18:22:13 37° N
COSMOS 2428 4.5 18:25:13 10° NNW 18:27:32 20° N 18:27:32 20° N
COSMO-SKYMED 1 4.4 18:42:21 29° NW 18:42:40 29° WNW 18:46:24 10° WSW
Cosmos 2322 Rocket 2.7 18:37:35 10° NNW 18:41:55 53° NW 18:41:55 53° NW
USA 267 3.4 18:45:34 61° N 18:45:43 61° N 18:52:09 10° W
SL-16 R/B 3.1 18:54:41 10° NW 18:59:21 46° W 18:59:21 46° W
Cosmos 2082 Rocket 3.4 19:01:21 10° WSW 19:06:20 37° NW 19:06:20 37° NW
Cosmos 2333 Rocket 4.0 19:04:03 10° NNW 19:06:11 23° NNW 19:06:11 23° NNW
ATLAS 2AS CENTAUR R/B 3.9 19:15:50 10° NW 19:20:53 36° NNW 19:20:53 36° NNW
COSMOS 2455 4.3 19:22:45 10° W 19:27:05 33° WNW 19:27:05 33° WNW
